Wind_Speed
39 36 28 18 16 18 25 40 51 52 48 44 39 38 33 28 22 22 19 19 16 14 19 16 15 18 17 23 27 26 26 29 28 32 32 29 31 28 25 23 26 26 20 19 20
36 37 27 21 19 18 25 39 53 55 51 47 42 40 36 30 25 22 19 20 17 17 18 13 17 20 18 19 25 23 28 27 32 33 35 36 33 32 30 27 22 21 22 15 16
31 32 27 23 21 18 25 42 54 58 53 50 44 42 38 30 27 22 22 19 18 15 15 14 15 20 22 8 18 20 20 26 26 27 32 36 35 32 28 27 25 23 19 17 10
30 29 27 25 21 18 25 45 58 60 56 51 46 44 39 32 28 24 25 22 20 15 16 15 11 18 14 11 17 17 14 19 26 30 18 38 36 34 30 25 20 18 17 13 15
28 29 27 26 21 17 27 50 61 62 58 53 46 43 41 35 29 26 27 25 22 16 17 15 13 9 17 9 4 12 10 11 23 29 21 16 24 33 30 30 26 20 17 14 12
29 26 25 25 19 17 32 55 64 62 58 54 47 43 40 35 31 28 32 29 24 18 16 14 12 15 14 9 3 8 8 10 25 24 23 21 14 30 29 29 27 23 19 16 14
26 25 24 21 16 19 39 60 65 62 58 54 48 45 40 37 33 37 36 30 26 18 18 16 11 11 8 6 5 8 10 11 15 22 21 18 23 26 30 29 27 22 20 20 18
25 25 23 18 14 23 46 65 65 63 58 54 50 46 39 38 39 40 36 30 25 20 16 16 16 13 6 7 6 8 8 15 12 19 19 20 25 27 28 30 28 25 24 23 19
23 22 20 14 16 29 54 66 66 62 58 53 49 44 40 41 42 44 36 30 27 22 18 15 14 11 5 6 5 10 12 17 16 18 19 19 22 24 26 28 29 28 24 25 26
21 20 16 13 21 37 63 67 65 61 58 53 48 44 42 43 42 42 38 29 25 23 17 10 10 15 6 7 7 8 10 12 14 14 18 20 23 26 26 29 29 32 29 29 29
20 18 14 16 28 47 64 65 63 58 55 51 46 44 41 41 40 40 36 31 27 23 19 14 8 9 15 9 4 8 13 15 14 17 17 22 23 27 22 31 32 35 33 34 34
19 17 13 22 34 56 63 65 65 60 56 50 46 43 41 39 35 32 33 33 19 19 22 16 12 17 12 15 10 13 15 16 15 20 25 23 7 24 32 34 37 40 37 36 36
19 15 17 29 43 63 68 66 62 59 57 51 47 43 42 40 36 33 35 30 9 18 19 20 17 21 24 19 14 17 20 17 23 21 23 24 17 27 36 33 36 39 39 39 38
19 16 23 35 50 64 63 64 62 59 55 52 48 45 45 39 36 34 34 35 12 24 11 16 21 21 28 17 20 17 20 19 21 24 22 26 30 34 40 40 38 35 40 39 40
19 19 28 40 54 61 63 62 60 59 56 52 48 48 45 40 34 35 35 37 33 9 20 14 17 18 17 19 22 21 20 24 24 28 25 27 30 35 36 38 41 44 41 40 41
20 22 32 44 62 66 67 64 60 58 55 53 49 48 43 38 34 37 34 35 34 31 26 21 20 25 19 21 26 33 28 27 29 29 29 26 37 39 43 40 41 41 40 39 36
21 25 37 48 60 61 61 59 61 57 55 53 50 44 39 39 33 41 36 30 30 31 28 27 31 32 32 34 35 27 27 29 30 32 33 35 39 42 42 45 47 45 43 44 42
24 31 43 56 65 64 63 60 61 56 53 51 48 44 40 38 36 40 39 36 29 35 30 30 31 34 30 26 26 27 29 34 34 37 42 44 44 46 45 49 55 53 53 48 45
29 36 46 56 62 61 63 63 56 52 46 48 48 42 40 37 38 32 33 29 26 26 29 31 33 33 25 27 31 34 33 33 37 48 46 50 52 49 47 47 51 52 54 52 54
31 38 49 59 62 62 63 59 56 51 52 48 46 41 38 37 34 32 34 34 27 26 22 31 39 37 37 37 36 37 34 37 41 49 52 51 53 53 52 51 50 51 56 53 53
33 41 53 60 62 61 62 60 58 50 56 51 45 43 41 38 31 31 31 29 28 20 20 32 30 36 34 30 28 32 38 44 48 52 59 55 55 56 57 54 51 55 59 50 50
36 45 56 61 61 64 64 63 60 59 52 54 48 47 39 34 27 29 34 31 31 23 31 30 34 36 36 31 33 46 51 51 49 52 55 57 61 60 59 56 56 58 57 54 53
39 47 57 61 63 63 63 63 58 59 55 50 50 46 40 29 40 29 33 35 39 44 46 42 40 46 49 41 45 47 48 50 51 51 55 60 64 59 62 61 66 64 59 53 53
44 50 59 65 67 63 64 64 59 58 55 52 50 45 44 43 35 21 36 42 46 49 47 45 53 53 47 49 48 49 48 50 52 54 54 59 62 57 58 61 66 62 61 58 57
46 50 59 67 66 63 63 64 63 60 58 55 52 51 49 50 47 46 33 48 28 42 43 37 40 48 49 51 50 49 52 54 55 56 55 59 60 57 58 65 65 63 62 62 60
44 42 50 57 62 66 63 65 65 61 58 56 55 54 54 51 45 51 41 44 55 49 48 50 51 51 54 53 52 54 56 55 58 57 62 59 57 58 60 61 62 61 62 62 61
51 54 57 59 63 64 65 67 68 64 61 62 59 59 56 51 55 57 56 53 46 42 47 50 50 50 52 51 54 56 57 55 57 61 65 64 61 61 63 65 64 62 63 63 62
Wind_Direction
324 324 315 292 266 248 215 202 195 194 189 192 187 175 171 172 164 152 143 149 148 128 134 95 88 81 88 58 49 43 42 41 42 46 53 54 52 46 48 57 57 55 60 73 79
319 318 311 292 278 248 217 200 191 191 187 188 184 175 172 174 166 159 156 154 166 148 137 113 87 82 85 66 39 38 40 47 45 49 52 53 51 50 47 49 54 50 48 52 56
308 310 308 290 287 256 218 197 187 187 184 185 184 179 175 176 172 162 166 169 178 166 149 146 100 84 61 73 42 34 27 43 33 41 53 51 44 43 46 48 45 43 35 52 59
302 303 304 292 290 264 213 192 182 183 182 184 182 179 176 177 172 170 171 172 181 164 158 151 109 85 92 45 11 34 14 30 25 34 26 38 35 36 33 29 29 32 26 23 32
294 299 299 292 288 253 204 185 178 180 180 182 178 176 172 171 173 175 169 175 180 168 155 148 143 116 124 100 313 8 13 19 18 20 25 7 14 28 25 23 23 23 24 22 15
289 292 293 291 284 234 193 179 175 177 178 180 176 173 170 175 173 173 166 170 177 169 162 154 135 117 127 138 250 1 15 10 10 12 7 12 13 13 18 16 16 20 16 11 357
284 289 289 287 270 213 184 175 172 175 176 178 177 172 170 170 169 166 167 174 180 175 155 153 158 141 151 146 96 53 62 345 344 12 15 11 22 12 9 7 11 14 11 9 4
278 285 285 280 242 192 178 171 170 173 175 176 175 173 174 173 172 169 172 175 180 182 171 168 179 175 177 159 117 77 24 12 348 6 11 4 5 7 5 3 6 360 3 2 357
271 276 280 269 214 182 173 169 170 172 174 175 173 175 178 178 174 177 179 181 184 192 196 203 203 205 120 151 4 21 359 3 6 3 359 356 2 1 354 359 2 349 352 354 356
263 266 269 242 193 177 170 169 171 171 173 172 174 177 180 178 177 184 183 179 187 201 191 205 221 212 183 172 179 295 314 358 13 360 342 348 353 346 350 358 351 352 352 351 349
254 259 253 207 183 173 169 170 170 171 171 173 175 179 182 180 181 181 181 188 199 194 197 200 160 193 191 233 311 300 306 313 325 349 344 340 341 342 342 347 348 350 352 348 346
246 251 231 191 177 170 170 170 171 171 172 173 176 181 178 177 177 173 179 190 201 205 199 200 219 235 227 231 290 319 313 301 327 342 336 333 67 342 339 347 348 347 348 344 342
235 234 208 185 174 172 175 174 172 172 170 175 177 180 178 173 175 175 174 177 164 222 175 183 200 212 228 262 291 295 305 304 305 335 333 331 314 321 340 348 344 340 341 342 340
226 215 194 182 175 176 176 175 173 174 173 177 180 179 185 177 179 182 182 192 123 170 179 189 192 223 255 252 265 290 304 301 307 320 323 334 340 333 333 337 339 340 337 340 337
219 202 189 182 176 176 178 177 176 175 175 179 182 184 187 173 186 188 192 200 211 221 214 207 220 244 280 295 290 294 302 301 316 312 321 333 326 334 334 332 335 337 340 338 334
211 195 185 178 177 180 179 176 177 177 178 182 185 190 186 181 183 196 201 211 215 222 226 223 225 240 283 283 280 299 300 300 306 307 320 329 326 332 327 333 331 333 336 335 327
202 191 184 179 177 179 181 181 179 180 181 186 189 193 184 192 184 201 202 208 220 228 235 238 241 257 268 273 280 290 289 297 302 306 312 317 319 327 326 329 326 334 332 332 332
194 187 181 177 180 180 181 183 183 183 185 189 195 193 188 195 184 195 200 205 223 230 233 247 257 262 270 273 280 286 294 296 303 303 311 313 317 320 327 330 329 333 332 331 327
191 188 182 178 180 182 185 185 183 183 188 195 197 200 195 197 205 195 202 212 225 228 237 247 255 262 247 267 287 297 296 301 309 308 313 316 320 320 327 326 329 328 325 331 327
189 186 179 180 180 184 187 184 184 187 189 194 201 201 200 200 201 202 204 213 227 228 232 249 250 253 255 270 286 285 289 300 309 309 310 312 313 320 322 327 328 321 325 332 330
187 185 181 179 184 188 188 186 189 189 196 199 196 201 202 204 203 203 205 213 221 236 250 246 245 254 259 273 266 278 293 297 303 307 310 311 315 317 322 325 322 322 326 330 328
187 187 182 181 186 191 192 189 192 190 199 200 198 204 201 207 212 220 220 212 208 197 237 239 255 264 258 267 272 290 295 297 302 305 308 312 315 322 321 323 316 317 326 328 330
187 187 185 186 191 193 193 195 195 201 200 204 206 204 199 210 218 224 232 235 237 240 249 257 269 264 267 272 277 283 289 296 301 306 309 310 314 321 320 318 318 323 324 325 323
192 189 188 189 194 196 196 201 198 203 203 206 208 204 205 199 209 209 227 227 241 243 250 254 262 268 272 275 279 287 294 297 300 306 307 306 315 319 313 309 315 317 319 322 320
196 195 195 193 194 196 197 202 207 205 206 208 212 207 206 209 205 200 222 208 239 237 237 241 260 272 276 278 285 290 291 296 302 303 303 305 312 311 308 310 314 316 320 318 320
196 199 201 202 201 200 201 200 206 205 211 212 212 213 211 211 212 214 219 231 237 242 249 258 268 273 276 282 286 288 293 299 299 302 299 305 306 306 304 304 308 314 313 314 319
196 198 200 199 203 203 206 206 207 209 210 216 217 219 223 220 220 221 227 234 237 250 263 262 266 274 278 284 287 289 293 298 300 298 300 304 304 302 302 304 309 312 310 314 316
Height
10955 10955 10956 10956 10957 10958 10962 10968 10978 10990 10999 11007 11015 11022 11029 11036 11042 11046 11047 11048 11049 11050 11049 11050 11050 11053 11053 11050 11050 11050 11046 11041 11042 11038 11035 11033 11030 11029 11026 11023 11022 11021 11020 11019 11019
10949 10949 10950 10950 10951 10953 10955 10962 10971 10985 10995 11004 11012 11021 11028 11035 11042 11046 11047 11047 11049 11049 11052 11054 11055 11055 11057 11057 11057 11054 11050 11048 11047 11043 11042 11038 11035 11032 11029 11027 11027 11025 11024 11022 11022
10944 10943 10944 10943 10944 10945 10949 10955 10966 10981 10992 11001 11011 11019 11026 11034 11040 11045 11046 11047 11048 11050 11052 11055 11055 11056 11058 11058 11056 11055 11054 11050 11051 11049 11046 11043 11040 11036 11034 11032 11030 11029 11028 11026 11025
10938 10938 10938 10937 10937 10938 10941 10948 10961 10976 10988 10999 11009 11017 11024 11031 11038 11042 11044 11046 11049 11053 11055 11055 11053 11056 11059 11053 11054 11053 11055 11053 11052 11052 11049 11045 11042 11039 11037 11035 11033 11031 11030 11028 11026
10934 10933 10932 10931 10932 10932 10935 10943 10957 10973 10985 10998 11007 11015 11022 11028 11035 11040 11044 11047 11051 11055 11057 11056 11054 11053 11057 11051 11055 11054 11055 11054 11055 11053 11051 11047 11044 11041 11039 11036 11033 11031 11029 11028 11026
10929 10929 10927 10926 10926 10927 10931 10940 10955 10971 10983 10995 11005 11013 11020 11026 11034 11041 11044 11048 11051 11054 11057 11056 11055 11054 11059 11061 11061 11057 11054 11053 11054 11054 11052 11049 11044 11042 11039 11036 11034 11031 11030 11028 11026
10925 10924 10923 10922 10922 10923 10928 10940 10955 10970 10982 10993 11003 11011 11018 11025 11033 11040 11043 11047 11050 11053 11056 11059 11059 11058 11057 11059 11061 11058 11056 11053 11053 11053 11053 11051 11048 11046 11042 11038 11035 11033 11031 11028 11026
10920 10920 10919 10918 10918 10921 10928 10941 10955 10968 10980 10991 11001 11009 11016 11024 11031 11038 11043 11047 11051 11053 11054 11056 11057 11056 11058 11057 11058 11056 11057 11054 11053 11054 11053 11051 11049 11046 11043 11039 11036 11034 11031 11028 11025
10916 10916 10915 10916 10916 10921 10930 10942 10955 10968 10979 10990 11001 11008 11015 11023 11030 11036 11041 11046 11050 11052 11052 11055 11056 11057 11058 11058 11060 11058 11057 11055 11053 11052 11053 11052 11049 11046 11043 11039 11036 11036 11031 11026 11022
10912 10913 10912 10913 10916 10922 10932 10944 10956 10968 10979 10990 10999 11006 11014 11021 11029 11034 11041 11047 11051 11052 11055 11055 11055 11057 11059 11059 11058 11057 11056 11058 11055 11055 11054 11053 11049 11046 11041 11038 11039 11036 11030 11025 11021
10908 10909 10910 10912 10916 10924 10937 10949 10962 10972 10981 10991 10998 11005 11013 11021 11028 11033 11041 11044 11045 11050 11053 11055 11054 11056 11056 11057 11054 11052 11054 11056 11056 11057 11055 11050 11049 11044 11044 11041 11038 11032 11027 11023 11019
10904 10906 10908 10911 10917 10928 10941 10951 10957 10970 10982 10991 10998 11006 11011 11020 11025 11032 11039 11040 11045 11046 11050 11052 11054 11055 11053 11053 11053 11052 11053 11052 11050 11050 11051 11050 11048 11045 11043 11037 11031 11027 11024 11020 11016
10901 10903 10906 10910 10917 10927 10933 10945 10960 10969 10977 10989 10996 11004 11012 11017 11023 11030 11034 11041 11044 11039 11044 11048 11051 11053 11053 11052 11049 11052 11052 11049 11047 11048 11047 11044 11045 11042 11038 11035 11029 11024 11020 11015 11011
10897 10900 10904 10908 10916 10926 10940 10949 10959 10971 10979 10987 10995 11002 11010 11016 11021 11027 11034 11036 11039 11040 11041 11044 11047 11050 11054 11052 11050 11050 11049 11044 11044 11044 11043 11039 11035 11033 11032 11029 11028 11026 11018 11012 11006
10893 10897 10901 10907 10918 10931 10941 10953 10960 10970 10979 10987 10994 11001 11008 11016 11019 11024 11030 11034 11034 11037 11039 11042 11045 11047 11048 11047 11047 11047 11045 11041 11039 11038 11040 11037 11036 11034 11032 11027 11019 11017 11015 11008 11000
10889 10894 10899 10906 10914 10925 10935 10946 10961 10971 10977 10984 10993 11000 11008 11014 11019 11023 11026 11029 11033 11034 11035 11037 11040 11041 11039 11042 11043 11042 11039 11036 11036 11035 11035 11035 11027 11025 11024 11024 11022 11018 11012 11006 11001
10885 10891 10898 10907 10920 10930 10942 10954 10958 10967 10975 10982 10990 10998 11006 11011 11018 11020 11024 11029 11033 11034 11036 11038 11037 11035 11035 11036 11036 11036 11035 11034 11031 11029 11029 11030 11026 11024 11016 11014 11012 11011 11010 11001 10993
10882 10888 10894 10901 10913 10926 10937 10946 10955 10967 10976 10982 10987 10994 11004 11010 11014 11019 11021 11026 11027 11029 11031 11032 11032 11033 11034 11033 11031 11030 11027 11025 11025 11023 11022 11021 11022 11017 11015 11005 10995 10993 10988 10989 10986
10878 10885 10893 10905 10916 10927 10935 10940 10961 10968 10974 10979 10982 10991 11000 11005 11009 11015 11020 11022 11025 11026 11029 11028 11028 11028 11028 11028 11027 11025 11022 11019 11016 11007 11016 11009 11007 11010 11009 11004 10996 10989 10982 10977 10967
10875 10883 10894 10903 10915 10923 10931 10947 10952 10961 10968 10975 10984 10989 10995 10999 11004 11012 11016 11021 11023 11024 11026 11023 11024 11023 11021 11022 11022 11021 11019 11015 11012 11002 11006 11006 11003 11001 11000 10997 10991 10984 10980 10972 10962
10872 10881 10892 10901 10911 10920 10931 10941 10949 10958 10958 10968 10979 10986 10988 10995 11005 11009 11015 11020 11020 11021 11018 11017 11018 11015 11014 11018 11015 11015 11013 11011 11008 10999 10987 10995 10997 10990 10989 10987 10982 10975 10968 10969 10962
10870 10878 10889 10899 10908 10916 10926 10935 10943 10946 10955 10964 10970 10977 10988 10995 11003 11008 11011 11015 11017 11007 11013 11011 11012 11011 11012 11012 11012 11010 11007 11007 11003 10996 10987 10981 10976 10983 10975 10974 10972 10970 10964 10957 10953
10866 10875 10885 10896 10905 10913 10923 10930 10938 10946 10955 10962 10967 10977 10981 10988 10996 11002 11002 11006 11006 11003 11000 11001 11002 11003 11002 11008 11003 11006 11004 10999 10995 10991 10982 10968 10970 10975 10961 10959 10950 10949 10950 10951 10945
10860 10871 10880 10886 10894 10908 10917 10927 10933 10940 10949 10956 10961 10974 10981 10985 10991 10996 10985 10996 10992 10993 10996 10997 10996 10995 11000 10997 10997 10997 10994 10991 10987 10983 10980 10968 10966 10966 10957 10947 10946 10944 10941 10936 10931
10855 10865 10871 10879 10893 10904 10913 10921 10927 10935 10942 10949 10957 10964 10967 10971 10978 10983 10982 10981 10982 10985 10989 10988 10989 10991 10991 10988 10988 10987 10984 10982 10980 10975 10972 10966 10962 10958 10947 10935 10932 10929 10927 10919 10917
10857 10867 10878 10888 10894 10898 10907 10916 10920 10929 10938 10944 10947 10954 10960 10968 10973 10975 10978 10981 10982 10987 10986 10988 10986 10983 10978 10979 10979 10975 10974 10975 10969 10963 10957 10963 10960 10951 10943 10934 10929 10926 10917 10911 10908
10849 10854 10863 10875 10886 10897 10901 10905 10912 10923 10930 10931 10939 10944 10956 10969 10969 10970 10973 10975 10979 10980 10979 10977 10977 10976 10972 10970 10967 10964 10962 10965 10958 10948 10945 10948 10946 10940 10933 10923 10920 10915 10904 10901 10897